1505624400.19,31626,12.56,73632.0,2.29,1.75,1.83,0,*7D
1505624401.42,31627,12.56,73632.5,2.29,1.71,1.75,0,*71
1505624402.65,31628,12.56,73634.3,2.27,1.67,1.67,0,*74
1505624403.85,31629,12.56,73630.0,2.29,1.75,1.75,0,*7B
1505624405.07,31630,12.56,73630.5,2.27,1.67,1.71,0,*7A
1505624406.3,31631,12.56,73630.3,2.29,1.71,1.83,0,*7F
1505624407.55,31632,12.56,73632.0,2.29,1.71,1.71,0,*71
1505624408.75,31633,12.56,73632.8,2.29,1.75,1.75,0,*70
1505624409.99,31634,12.56,73634.3,2.29,1.59,1.59,0,*77
1505624411.24,31635,12.56,73628.0,2.33,1.63,1.59,0,*74
1505624412.48,31636,12.56,73632.0,2.29,1.59,1.59,0,*75
1505624413.73,31637,12.56,73632.3,2.29,1.63,1.71,0,*77
1505624414.95,31638,12.56,73632.0,2.27,1.67,1.67,0,*75
1505624416.2,31639,12.56,73632.5,2.29,1.71,1.71,0,*7A
1505624417.45,31640,12.56,73634.0,2.29,1.71,1.71,0,*74
1505624418.67,31641,12.56,73628.0,2.27,1.67,1.67,0,*7B
1505624419.92,31642,12.56,73630.3,2.29,1.63,1.71,0,*75
1505624421.12,31643,12.56,73634.8,2.29,1.75,1.75,0,*77
1505624422.32,31644,12.56,73634.5,2.29,1.83,1.83,0,*70
1505624423.52,31645,12.56,73634.3,2.27,1.83,1.71,0,*72
1505624424.75,31646,12.56,73632.0,2.29,1.83,1.85,0,*74
1505624425.95,31647,12.56,73634.5,2.29,1.83,1.75,0,*7A
1505624427.15,31648,12.56,73634.0,2.29,1.75,1.75,0,*7C
1505624428.35,31649,12.56,73632.5,2.29,1.83,1.75,0,*74
1505624429.56,31650,12.56,73630.8,2.29,1.75,1.75,0,*75
1505624430.76,31651,12.56,73634.8,2.33,1.83,1.75,0,*76
1505624431.96,31652,12.56,73634.0,2.33,1.83,1.75,0,*75
1505624433.17,31653,12.56,73628.5,2.29,1.75,1.75,0,*76
1505624434.37,31654,12.56,73634.3,2.29,1.83,1.75,0,*78
1505624435.57,31655,12.56,73634.8,2.33,1.75,1.83,0,*72
1505624436.8,31656,12.56,73632.3,2.33,1.75,1.71,0,*7C
1505624438.0,31657,12.56,73632.3,2.33,1.83,1.83,0,*79
1505624439.26,31658,12.56,73632.5,2.33,1.85,1.85,0,*76
1505624440.47,31659,12.56,73630.0,2.33,1.83,1.83,0,*77
1505624441.67,31660,12.56,73628.5,2.33,1.83,1.83,0,*7D
1505624442.88,31661,12.56,73630.0,2.33,1.83,1.83,0,*7C
1505624444.08,31662,12.56,73634.0,2.33,1.75,1.75,0,*7F
1505624445.26,31663,12.56,73630.0,2.35,1.79,1.79,0,*78
1505624446.44,31664,12.56,73630.5,2.35,1.75,1.79,0,*73
1505624447.67,31665,12.56,73630.0,2.33,1.71,1.75,0,*7C
1505624448.9,31666,12.56,73632.3,2.33,1.83,1.71,0,*76
1505624450.13,31667,12.56,73630.3,2.33,1.71,1.75,0,*7E
1505624451.38,31668,12.56,73630.8,2.33,1.71,1.71,0,*75
1505624452.61,31669,12.56,73630.0,2.33,1.71,1.75,0,*70
1505624453.81,31670,12.56,73630.8,2.33,1.75,1.75,0,*7C
1505624455.05,31671,12.56,73628.0,2.33,1.71,1.75,0,*79
1505624456.25,31672,12.56,73628.0,2.33,1.75,1.75,0,*7E
1505624457.46,31673,12.56,73630.3,2.33,1.75,1.75,0,*7F
1505624458.66,31674,12.56,73632.0,2.33,1.75,1.75,0,*78
1505624459.9,31675,12.56,73634.0,2.33,1.71,1.75,0,*7D
1505624461.1,31676,12.56,73632.0,2.33,1.83,1.83,0,*7A
1505624462.31,31677,12.56,73628.3,2.33,1.75,1.75,0,*7B
1505624463.49,31678,12.56,73634.5,2.35,1.75,1.75,0,*72
1505624464.69,31679,12.56,73634.5,2.33,1.75,1.75,0,*75
1505624465.9,31680,12.56,73634.0,2.33,1.75,1.75,0,*73
1505624467.1,31681,12.56,73632.3,2.33,1.75,1.75,0,*72
1505624468.31,31682,12.56,73632.3,2.33,1.75,1.83,0,*78
1505624469.52,31683,12.56,73630.5,2.33,1.75,1.75,0,*70
1505624470.7,31684,12.56,73632.3,2.35,1.75,1.75,0,*71
1505624471.9,31685,12.56,73632.0,2.33,1.75,1.75,0,*76
1505624473.13,31686,12.56,73632.3,2.33,1.75,1.71,0,*71
1505624474.33,31687,12.56,73632.5,2.33,1.75,1.75,0,*74
1505624475.54,31688,12.56,73628.3,2.35,1.79,1.85,0,*7E
1505624476.75,31689,12.56,73634.5,2.33,1.75,1.83,0,*73
1505624477.95,31690,12.56,73628.8,2.33,1.75,1.83,0,*7B
1505624479.13,31691,12.56,73628.3,2.35,1.79,1.79,0,*75
1505624480.34,31692,12.56,73628.5,2.33,1.75,1.75,0,*70
1505624481.52,31693,12.56,73632.8,2.35,1.79,1.79,0,*77
1505624482.77,31694,12.56,73630.8,2.33,1.71,1.71,0,*76
1505624483.97,31695,12.56,73630.3,2.35,1.75,1.71,0,*75
1505624485.17,31696,12.56,73628.3,2.33,1.75,1.75,0,*74
1505624486.38,31697,12.56,73628.5,2.33,1.75,1.75,0,*75
1505624487.56,31698,12.56,73628.5,2.35,1.75,1.75,0,*7C
1505624488.81,31699,12.56,73630.8,2.33,1.71,1.71,0,*7B
1505624489.99,31700,12.56,73628.8,2.35,1.75,1.79,0,*70
1505624491.22,31701,12.56,73630.3,2.33,1.71,1.75,0,*7F
1505624492.43,31702,12.56,73630.3,2.33,1.75,1.75,0,*78
1505624493.66,31703,12.56,73628.0,2.33,1.71,1.75,0,*7D
1505624494.84,31704,12.56,73630.8,2.35,1.79,1.75,0,*74
1505624496.09,31705,12.56,73630.0,2.33,1.71,1.71,0,*7F
1505624497.27,31706,12.56,73630.3,2.35,1.79,1.75,0,*76
1505624498.49,31707,12.56,73628.5,2.33,1.75,1.71,0,*79
1505624499.67,31708,12.56,73632.5,2.35,1.75,1.75,0,*74
1505624500.92,31709,12.56,73630.0,2.33,1.63,1.63,0,*73
1505624502.1,31710,12.56,73630.8,2.35,1.75,1.75,0,*7D
1505624503.28,31711,12.56,73630.8,2.35,1.75,1.75,0,*7C
1505624504.46,31712,12.56,73634.5,2.35,1.79,1.79,0,*7F
1505624505.64,31713,12.56,73632.3,2.35,1.79,1.79,0,*7E
1505624506.82,31714,12.56,73632.5,2.35,1.79,1.79,0,*79
1505624508.0,31715,12.56,73632.5,2.35,1.79,1.79,0,*78
1505624509.21,31716,12.56,73632.3,2.35,1.85,1.75,0,*74
1505624510.39,31717,12.56,73636.0,2.35,1.79,1.79,0,*7A
1505624511.6,31718,12.56,73634.3,2.33,1.75,1.75,0,*73
1505624512.83,31719,12.56,73632.8,2.35,1.85,1.85,0,*74
1505624514.01,31720,12.56,73634.8,2.35,1.83,1.75,0,*77
1505624515.24,31721,12.56,73630.8,2.35,1.89,1.85,0,*73
1505624516.47,31722,12.56,73634.0,2.35,1.85,1.85,0,*7C
1505624517.7,31723,12.56,73636.3,2.35,1.85,1.85,0,*7D
1505624518.91,31724,12.56,73630.3,2.35,1.79,1.85,0,*79
1505624520.12,31725,12.56,73632.8,2.35,1.79,1.85,0,*78
1505624521.32,31726,12.56,73634.0,2.35,1.85,1.79,0,*7B
1505624522.5,31727,12.56,73630.0,2.35,1.79,1.79,0,*79
1505624523.73,31728,12.56,73630.3,2.33,1.71,1.83,0,*7D
1505624524.94,31729,12.56,73628.0,2.35,1.79,1.85,0,*74
1505624526.15,31730,12.56,73632.3,2.35,1.79,1.85,0,*7C
1505624527.35,31731,12.56,73632.8,2.33,1.83,1.83,0,*78
1505624528.56,31732,12.56,73630.8,2.35,1.79,1.85,0,*7E
1505624529.77,31733,12.56,73632.8,2.35,1.79,1.85,0,*7F
1505624531.0,31734,12.56,73634.3,2.37,1.85,1.85,0,*79
1505624532.24,31735,12.56,73634.5,2.35,1.85,1.85,0,*7A
1505624533.47,31736,12.56,73632.0,2.35,1.85,1.85,0,*79
1505624534.71,31737,12.56,73632.0,2.35,1.85,1.85,0,*78
1505624535.93,31738,12.56,73630.0,2.35,1.89,1.85,0,*7B
1505624537.17,31739,12.56,73632.3,2.35,1.85,1.85,0,*76
1505624538.4,31740,12.56,73630.3,2.35,1.85,1.85,0,*78
1505624539.63,31741,12.56,73632.3,2.37,1.85,1.89,0,*77
1505624540.81,31742,12.56,73632.8,2.37,1.75,1.75,0,*78
1505624542.0,31743,12.56,73630.3,2.37,1.75,1.75,0,*79
1505624543.18,31744,12.56,73634.8,2.37,1.75,1.75,0,*7E
1505624544.37,31745,12.56,73628.0,2.37,1.79,1.79,0,*7F
1505624545.55,31746,12.56,73630.5,2.37,1.79,1.79,0,*7C
1505624546.74,31747,12.56,73634.3,2.37,1.79,1.75,0,*71
1505624547.92,31748,12.56,73634.5,2.37,1.79,1.79,0,*72
1505624549.1,31749,12.56,73634.0,2.35,1.75,1.79,0,*7D
1505624550.32,31750,12.56,73636.5,2.35,1.89,1.89,0,*79
1505624551.55,31751,12.56,73634.8,2.35,1.85,1.85,0,*78
1505624552.73,31752,12.56,73634.8,2.35,1.75,1.75,0,*7B
1505624553.94,31753,12.56,73634.0,2.37,1.75,1.67,0,*7B
1505624555.16,31754,12.56,73634.0,2.35,1.67,1.67,0,*7D
1505624556.34,31755,12.56,73634.0,2.35,1.75,1.79,0,*70
1505624557.52,31756,12.56,73632.0,2.37,1.75,1.79,0,*71
1505624558.7,31757,12.56,73632.3,2.35,1.75,1.79,0,*72
1505624559.89,31758,12.56,73632.8,2.37,1.75,1.79,0,*7F
1505624561.07,31759,12.56,73634.0,2.37,1.75,1.79,0,*7E
1505624562.25,31760,12.56,73634.8,2.35,1.79,1.79,0,*7A
1505624563.44,31761,12.56,73634.5,2.37,1.79,1.79,0,*79
1505624564.62,31762,12.56,73632.5,2.37,1.79,1.79,0,*7A
1505624565.81,31763,12.56,73632.3,2.37,1.75,1.79,0,*77
1505624566.99,31764,12.56,73632.3,2.37,1.75,1.75,0,*7C
1505624568.17,31765,12.56,73632.8,2.35,1.75,1.79,0,*73
1505624569.35,31766,12.56,73630.3,2.35,1.75,1.75,0,*7C
1505624570.57,31767,12.56,73628.8,2.35,1.67,1.67,0,*7D
1505624571.75,31768,12.56,73634.3,2.35,1.79,1.79,0,*72
1505624572.93,31769,12.56,73632.8,2.35,1.75,1.79,0,*7F
1505624574.11,31770,12.56,73632.8,2.35,1.75,1.79,0,*77
1505624575.3,31771,12.56,73634.0,2.37,1.79,1.79,0,*78
1505624576.48,31772,12.56,73632.8,2.37,1.75,1.79,0,*77
1505624577.67,31773,12.56,73634.0,2.37,1.75,1.75,0,*7A
1505624578.85,31774,12.56,73632.3,2.37,1.79,1.79,0,*7D
1505624580.04,31775,12.56,73632.3,2.37,1.75,1.79,0,*70
1505624581.22,31776,12.56,73632.3,2.37,1.79,1.75,0,*73
1505624582.43,31777,12.56,73632.3,2.35,1.63,1.75,0,*7B
1505624583.61,31778,12.56,73634.0,2.35,1.79,1.79,0,*73
1505624584.82,31779,12.56,73634.0,2.37,1.75,1.85,0,*7F
1505624586.03,31780,12.56,73628.5,2.37,1.79,1.85,0,*75
1505624587.22,31781,12.56,73632.3,2.35,1.79,1.89,0,*7A
1505624588.44,31782,12.56,73632.0,2.37,1.75,1.85,0,*7B
1505624589.67,31783,12.56,73632.5,2.37,1.89,1.85,0,*79
1505624590.91,31784,12.56,73632.3,2.37,1.85,1.85,0,*72
1505624592.09,31785,12.56,73632.3,2.37,1.75,1.79,0,*7F
1505624593.33,31786,12.56,73632.3,2.37,1.85,1.85,0,*70
1505624594.57,31787,12.56,73632.5,2.37,1.85,1.85,0,*71
1505624595.79,31788,12.56,73636.0,2.39,1.83,1.89,0,*7A
1505624596.97,31789,12.56,73632.8,2.37,1.79,1.79,0,*7F
1505624598.16,31790,12.56,73634.3,2.37,1.79,1.79,0,*77
1505624599.37,31791,12.56,73632.8,2.37,1.85,1.79,0,*75
1505624600.57,31792,12.56,73628.0,2.37,1.89,1.75,0,*76
1505624601.76,31793,12.56,73634.5,2.37,1.79,1.79,0,*74
1505624602.95,31794,12.56,73630.5,2.37,1.79,1.79,0,*73
1505624604.15,31795,12.56,73628.0,2.39,1.83,1.79,0,*79
1505624605.33,31796,12.56,73630.3,2.37,1.79,1.79,0,*71
1505624606.52,31797,12.56,73630.5,2.37,1.79,1.75,0,*7C
1505624607.7,31798,12.56,73634.0,2.37,1.79,1.75,0,*73
1505624608.89,31799,12.56,73632.3,2.37,1.79,1.79,0,*7E
1505624610.1,31800,12.56,73632.3,2.37,1.79,1.85,0,*72
1505624611.34,31801,12.56,73630.3,2.37,1.85,1.85,0,*70
1505624612.55,31802,12.56,73634.5,2.37,1.85,1.79,0,*70
1505624613.76,31803,12.56,73632.0,2.37,1.85,1.75,0,*7D
1505624614.95,31804,12.56,73630.5,2.37,1.79,1.75,0,*79
1505624616.16,31805,12.56,73632.0,2.37,1.85,1.79,0,*77
1505624617.37,31806,12.56,73634.3,2.37,1.85,1.79,0,*74
1505624618.58,31807,12.56,73632.0,2.37,1.89,1.83,0,*7C
1505624619.82,31808,12.56,73632.0,2.39,1.89,1.89,0,*77
1505624621.06,31809,12.56,73630.5,2.39,1.89,1.89,0,*76
1505624622.29,31810,12.56,73628.8,2.37,1.85,1.89,0,*7C
1505624623.47,31811,12.56,73632.5,2.37,1.79,1.75,0,*7D
1505624624.68,31812,12.56,73632.8,2.37,1.67,1.79,0,*7D
1505624625.86,31813,12.56,73630.8,2.37,1.75,1.75,0,*73
1505624627.07,31814,12.56,73630.8,2.39,1.79,1.83,0,*7F
1505624628.25,31815,12.56,73634.3,2.37,1.75,1.75,0,*75
1505624629.47,31816,12.56,73632.3,2.37,1.85,1.79,0,*75
1505624630.65,31817,12.56,73634.8,2.37,1.75,1.79,0,*7B
1505624631.83,31818,12.56,73632.3,2.37,1.79,1.79,0,*78
1505624633.04,31819,12.56,73634.5,2.39,1.83,1.83,0,*77
1505624634.22,31820,12.56,73634.3,2.37,1.75,1.75,0,*73
1505624635.41,31821,12.56,73634.3,2.37,1.75,1.75,0,*72
1505624636.59,31822,12.56,73632.5,2.37,1.79,1.79,0,*71
1505624637.8,31823,12.56,73634.0,2.37,1.85,1.79,0,*73
1505624639.03,31824,12.56,73632.0,2.37,1.89,1.85,0,*7B
1505624640.28,31825,12.56,73634.0,2.39,1.93,1.89,0,*73
1505624641.49,31826,12.56,73632.5,2.37,1.79,1.85,0,*76
1505624642.69,31827,12.56,73630.0,2.39,1.83,1.83,0,*7A
1505624643.88,31828,12.56,73632.5,2.37,1.79,1.79,0,*7B
1505624645.08,31829,12.56,73632.8,2.37,1.79,1.89,0,*75
1505624646.33,31830,12.56,73634.0,2.39,1.93,1.89,0,*77
1505624647.57,31831,12.56,73634.8,2.39,1.93,1.89,0,*76
1505624648.81,31832,12.56,73634.8,2.37,1.85,1.85,0,*70
1505624650.01,31833,12.56,73634.0,2.39,1.83,1.83,0,*7F
1505624651.2,31834,12.56,73630.0,2.37,1.79,1.75,0,*7A
1505624652.4,31835,12.56,73632.8,2.39,1.79,1.79,0,*79
1505624653.59,31836,12.56,73632.3,2.37,1.75,1.75,0,*74
1505624654.77,31837,12.56,73634.3,2.37,1.79,1.75,0,*79
1505624655.98,31838,12.56,73634.5,2.39,1.79,1.83,0,*71
1505624657.16,31839,12.56,73632.0,2.37,1.75,1.75,0,*7B
1505624658.35,31840,12.56,73636.3,2.37,1.75,1.79,0,*79
1505624659.53,31841,12.56,73634.3,2.37,1.79,1.79,0,*74
1505624660.72,31842,12.56,73634.0,2.37,1.79,1.75,0,*7B
1505624661.9,31843,12.56,73634.0,2.37,1.79,1.79,0,*76
1505624663.14,31844,12.56,73634.3,2.37,1.85,1.85,0,*71
1505624664.35,31845,12.56,73632.8,2.37,1.85,1.79,0,*73
1505624665.57,31846,12.56,73632.0,2.37,1.89,1.89,0,*73
1505624666.81,31847,12.56,73632.3,2.37,1.85,1.85,0,*72
1505624668.05,31848,12.56,73636.3,2.39,1.89,1.89,0,*73
1505624669.26,31849,12.56,73632.8,2.37,1.79,1.85,0,*7F
1505624670.49,31850,12.56,73632.3,2.39,1.89,1.83,0,*70
1505624671.73,31851,12.56,73632.8,2.39,1.89,1.89,0,*7B
1505624672.92,31852,12.56,73634.5,2.37,1.75,1.79,0,*7A
1505624674.12,31853,12.56,73630.8,2.37,1.79,1.71,0,*7F
1505624675.35,31854,12.56,73632.5,2.37,1.67,1.67,0,*70
1505624676.55,31855,12.56,73632.8,2.37,1.67,1.75,0,*72
1505624677.76,31856,12.56,73632.3,2.39,1.79,1.79,0,*7C
1505624678.94,31857,12.56,73634.8,2.37,1.75,1.75,0,*73
1505624680.13,31858,12.56,73632.8,2.37,1.75,1.75,0,*7C
1505624681.37,31859,12.56,73632.3,2.39,1.67,1.71,0,*74
1505624682.62,31860,12.56,73634.8,2.39,1.71,1.71,0,*79
1505624683.87,31861,12.56,73636.0,2.39,1.67,1.71,0,*7F
1505624685.11,31862,12.56,73628.8,2.39,1.71,1.71,0,*7B
1505624686.32,31863,12.56,73634.3,2.37,1.75,1.67,0,*77
1505624687.52,31864,12.56,73632.0,2.39,1.83,1.79,0,*78
1505624688.73,31865,12.56,73634.5,2.39,1.79,1.79,0,*7C
1505624689.93,31866,12.56,73634.8,2.37,1.67,1.75,0,*72
1505624691.12,31867,12.56,73628.3,2.37,1.75,1.79,0,*7C
1505624692.3,31868,12.56,73630.8,2.37,1.79,1.75,0,*73
1505624693.51,31869,12.56,73628.8,2.37,1.67,1.75,0,*7D
1505624694.71,31870,12.56,73632.3,2.37,1.67,1.75,0,*75
1505624695.9,31871,12.56,73630.5,2.37,1.75,1.75,0,*77
1505624697.08,31872,12.56,73634.0,2.37,1.75,1.75,0,*74
1505624698.29,31873,12.56,73632.0,2.37,1.67,1.75,0,*76
1505624699.52,31874,12.56,73634.0,2.37,1.67,1.67,0,*72
1505624700.76,31875,12.56,73630.5,2.39,1.71,1.71,0,*7D
1505624701.99,31876,12.56,73634.0,2.39,1.83,1.71,0,*73
1505624703.19,31877,12.56,73634.0,2.39,1.83,1.83,0,*7F
1505624704.39,31878,12.56,73630.8,2.39,1.79,1.79,0,*70
1505624705.58,31879,12.56,73634.0,2.37,1.79,1.79,0,*7F
1505624706.76,31880,12.56,73630.8,2.37,1.79,1.75,0,*75
1505624707.95,31881,12.56,73630.3,2.37,1.79,1.79,0,*78
1505624709.15,31882,12.56,73632.3,2.39,1.79,1.79,0,*75
1505624710.34,31883,12.56,73630.3,2.37,1.79,1.79,0,*7A
1505624711.52,31884,12.56,73630.3,2.37,1.79,1.75,0,*71
1505624712.71,31885,12.56,73634.3,2.37,1.75,1.79,0,*70
1505624713.91,31886,12.56,73634.5,2.39,1.79,1.83,0,*74
1505624715.1,31887,12.56,73634.0,2.37,1.75,1.75,0,*7E
1505624716.28,31888,12.56,73634.8,2.37,1.79,1.79,0,*71
1505624717.53,31889,12.56,73632.3,2.39,1.71,1.67,0,*79
1505624718.76,31890,12.56,73634.0,2.39,1.71,1.79,0,*7E
1505624719.95,31891,12.56,73634.0,2.37,1.75,1.79,0,*75
1505624721.13,31892,12.56,73628.5,2.37,1.75,1.79,0,*76
1505624722.32,31893,12.56,73632.0,2.37,1.75,1.79,0,*77
1505624723.5,31894,12.56,73636.0,2.37,1.79,1.75,0,*70
1505624724.71,31895,12.56,73634.0,2.39,1.83,1.83,0,*73
1505624725.89,31896,12.56,73634.0,2.37,1.79,1.79,0,*7E
1505624727.1,31897,12.56,73632.5,2.37,1.75,1.85,0,*70
1505624728.3,31898,12.56,73634.8,2.39,1.83,1.83,0,*7E
1505624729.52,31899,12.56,73632.0,2.39,1.83,1.89,0,*75
1505624730.71,31900,12.56,73632.0,2.37,1.79,1.79,0,*70
1505624731.89,31901,12.56,73632.5,2.37,1.79,1.79,0,*71
1505624733.08,31902,12.56,73634.0,2.37,1.79,1.79,0,*72
1505624734.31,31903,12.56,73636.3,2.37,1.67,1.67,0,*73
1505624735.51,31904,12.56,73632.3,2.39,1.79,1.79,0,*7A
1505624736.7,31905,12.56,73632.0,2.37,1.79,1.79,0,*75
1505624737.88,31906,12.56,73632.8,2.37,1.75,1.79,0,*7A
1505624739.06,31907,12.56,73634.0,2.37,1.79,1.75,0,*7B
1505624740.27,31908,12.56,73632.3,2.39,1.79,1.79,0,*76
1505624741.48,31909,12.56,73634.8,2.39,1.79,1.83,0,*72
1505624742.68,31910,12.56,73630.3,2.39,1.83,1.79,0,*7A
1505624743.88,31911,12.56,73630.3,2.37,1.75,1.67,0,*73
1505624745.09,31912,12.56,73632.0,2.37,1.79,1.71,0,*7B
1505624746.29,31913,12.56,73632.3,2.39,1.83,1.83,0,*7C
1505624747.48,31914,12.56,73634.5,2.37,1.75,1.79,0,*79
1505624748.68,31915,12.56,73632.5,2.39,1.79,1.83,0,*7F
1505624749.86,31916,12.56,73630.8,2.37,1.75,1.79,0,*7B
1505624751.07,31917,12.56,73632.3,2.39,1.83,1.83,0,*78
1505624752.27,31918,12.56,73634.8,2.39,1.83,1.83,0,*77
1505624753.45,31919,12.56,73630.5,2.37,1.79,1.75,0,*74
1505624754.64,31920,12.56,73630.3,2.37,1.75,1.79,0,*7E
1505624755.84,31921,12.56,73630.3,2.39,1.83,1.83,0,*7D
1505624757.03,31922,12.56,73632.0,2.37,1.79,1.79,0,*70
1505624758.23,31923,12.56,73632.3,2.39,1.83,1.83,0,*7F
1505624759.44,31924,12.56,73634.5,2.39,1.79,1.83,0,*7D
1505624760.66,31925,12.56,73628.8,2.39,1.93,1.83,0,*78
1505624761.87,31926,12.56,73632.8,2.39,1.83,1.83,0,*7A
1505624763.07,31927,12.56,73632.0,2.39,1.83,1.83,0,*7B
1505624764.25,31928,12.56,73628.0,2.37,1.79,1.79,0,*7A
1505624765.44,31929,12.56,73628.8,2.37,1.75,1.75,0,*7B
1505624766.62,31930,12.56,73630.3,2.37,1.75,1.75,0,*73
1505624767.83,31931,12.56,73630.3,2.39,1.79,1.79,0,*7C
1505624769.03,31932,12.56,73628.8,2.39,1.83,1.83,0,*7F
1505624770.24,31933,12.56,73632.5,2.39,1.79,1.83,0,*7B
1505624771.44,31934,12.56,73630.0,2.39,1.79,1.83,0,*7C
1505624772.65,31935,12.56,73628.8,2.39,1.79,1.83,0,*7D
1505624773.85,31936,12.56,73628.8,2.39,1.83,1.83,0,*7B
1505624775.04,31937,12.56,73630.8,2.37,1.79,1.75,0,*78
1505624776.24,31938,12.56,73632.5,2.39,1.79,1.79,0,*75
1505624777.47,31939,12.56,73630.8,2.37,1.67,1.67,0,*7A
1505624778.67,31940,12.56,73628.0,2.39,1.79,1.83,0,*7F
1505624779.88,31941,12.56,73632.3,2.39,1.79,1.79,0,*7B
1505624781.06,31942,12.56,73630.5,2.37,1.79,1.75,0,*7A
1505624782.25,31943,12.56,73630.0,2.37,1.75,1.75,0,*77
1505624783.45,31944,12.56,73628.8,2.37,1.75,1.67,0,*73
1505624784.66,31945,12.56,73632.5,2.39,1.79,1.79,0,*7F
1505624785.86,31946,12.56,73630.0,2.39,1.83,1.79,0,*79
1505624787.05,31947,12.56,73630.0,2.37,1.75,1.75,0,*73
1505624788.29,31948,12.56,73634.3,2.39,1.71,1.71,0,*72
1505624789.52,31949,12.56,73634.0,2.39,1.79,1.71,0,*7B
1505624790.77,31950,12.56,73630.8,2.39,1.71,1.63,0,*78
1505624792.0,31951,12.56,73632.0,2.37,1.63,1.67,0,*70
1505624793.24,31952,12.56,73634.3,2.39,1.67,1.71,0,*7E
1505624794.49,31953,12.56,73632.5,2.39,1.71,1.67,0,*7F
1505624795.7,31954,12.56,73630.3,2.37,1.75,1.63,0,*76
1505624796.95,31955,12.56,73632.8,2.39,1.67,1.67,0,*7E
1505624798.2,31956,12.56,73632.8,2.39,1.71,1.71,0,*7D
1505624799.42,31957,12.56,73634.0,2.37,1.67,1.67,0,*72
1505624800.65,31958,12.56,73634.5,2.37,1.67,1.67,0,*7D
1505624801.88,31959,12.56,73632.5,2.39,1.71,1.79,0,*7A
1505624803.11,31960,12.56,73634.8,2.37,1.67,1.67,0,*76
1505624804.34,31961,12.56,73634.8,2.37,1.63,1.63,0,*77
1505624805.58,31962,12.56,73630.8,2.39,1.67,1.71,0,*7D
1505624806.81,31963,12.56,73634.3,2.37,1.71,1.63,0,*76
1505624808.02,31964,12.56,73632.8,2.37,1.05,0.83,0,*4D
1505624809.22,31965,12.56,73634.0,2.35,-0.23,-0.33,0,*70
1505624810.47,31966,12.56,73638.8,2.29,0.51,0.47,0,*78
1505624811.66,31967,12.56,73632.0,2.29,1.01,0.97,0,*40
1505624812.92,31968,12.56,73628.5,2.29,1.21,1.21,0,*71
1505624814.18,31969,12.56,73628.8,2.29,1.33,1.33,0,*70
1505624815.43,31970,12.56,73628.3,2.29,1.43,1.37,0,*7B
1505624816.68,31971,12.56,73630.3,2.29,1.47,1.51,0,*7E
1505624817.91,31972,12.56,73628.3,2.27,1.51,1.51,0,*74
1505624819.16,31973,12.56,73634.5,2.29,1.55,1.55,0,*7B
1505624820.41,31974,12.56,73632.5,2.29,1.55,1.55,0,*7C
1505624821.67,31975,12.56,73632.0,2.29,1.55,1.55,0,*7D
1505624822.91,31976,12.56,73632.5,2.29,1.63,1.63,0,*7E
1505624824.16,31977,12.56,73630.5,2.29,1.59,1.63,0,*76
1505624825.4,31978,12.56,73628.8,2.29,1.59,1.59,0,*70
1505624826.63,31979,12.56,73630.0,2.27,1.55,1.55,0,*7F
1505624827.87,31980,12.56,73628.3,2.27,1.55,1.55,0,*79
1505624829.11,31981,12.56,73626.8,2.29,1.63,1.59,0,*7F
1505624830.35,31982,12.56,73630.8,2.29,1.59,1.59,0,*75
1505624831.59,31983,12.56,73630.0,2.27,1.55,1.55,0,*7A
1505624832.83,31984,12.56,73624.3,2.29,1.59,1.59,0,*73
1505624834.08,31985,12.56,73628.0,2.29,1.63,1.63,0,*72
1505624835.31,31986,12.56,73624.5,2.27,1.55,1.59,0,*73
1505624836.55,31987,12.56,73630.3,2.29,1.63,1.63,0,*70
1505624837.8,31988,12.56,73628.0,2.29,1.63,1.63,0,*7F
1505624839.05,31989,12.56,73630.0,2.29,1.71,1.63,0,*7D
1505624840.27,31990,12.56,73628.5,2.27,1.59,1.59,0,*78
1505624841.5,31991,12.56,73626.5,2.27,1.67,1.67,0,*79
1505624842.73,31992,12.56,73630.0,2.29,1.71,1.75,0,*70
1505624843.95,31993,12.56,73628.0,2.27,1.71,1.71,0,*7B
1505624845.2,31994,12.56,73630.8,2.29,1.71,1.71,0,*72
1505624846.4,31995,12.56,73628.8,2.29,1.75,1.75,0,*73
1505624847.63,31996,12.56,73628.8,2.29,1.71,1.75,0,*74
1505624848.86,31997,12.56,73628.8,2.29,1.71,1.75,0,*75
1505624850.1,31998,12.56,73630.8,2.29,1.71,1.71,0,*7E
1505624851.33,31999,12.56,73632.5,2.27,1.67,1.71,0,*76
1505624852.57,32000,12.56,73630.3,2.29,1.71,1.71,0,*75
1505624853.78,32001,12.56,73630.8,2.29,1.75,1.75,0,*74
1505624855.03,32002,12.56,73634.0,2.33,1.71,1.71,0,*7C
1505624856.26,32003,12.56,73630.8,2.33,1.71,1.75,0,*79
1505624857.49,32004,12.56,73634.3,2.33,1.71,1.75,0,*7E
1505624858.69,32005,12.56,73632.3,2.29,1.75,1.75,0,*70
1505624859.92,32006,12.56,73634.8,2.29,1.71,1.75,0,*77
1505624861.12,32007,12.56,73626.8,2.29,1.75,1.75,0,*72
1505624862.32,32008,12.56,73628.5,2.29,1.75,1.75,0,*7D
1505624863.53,32009,12.56,73630.8,2.33,1.75,1.75,0,*77
1505624864.74,32010,12.56,73630.8,2.33,1.75,1.75,0,*7F
1505624865.97,32011,12.56,73628.8,2.33,1.71,1.75,0,*7A
1505624867.17,32012,12.56,73628.0,2.35,1.75,1.71,0,*7F
1505624868.35,32013,12.56,73626.3,2.35,1.79,1.79,0,*7A
1505624869.6,32014,12.56,73628.3,2.33,1.71,1.71,0,*7B
1505624870.85,32015,12.56,73628.8,2.33,1.63,1.63,0,*7A
1505624872.1,32016,12.56,73630.3,2.33,1.63,1.63,0,*79
1505624873.3,32017,12.63,73634.8,2.35,1.75,1.67,0,*7D
1505624874.55,32018,12.56,73630.3,2.33,1.71,1.63,0,*74
1505624875.78,32019,12.56,73632.8,2.33,1.63,1.75,0,*71
1505624877.03,32020,12.56,73628.5,2.33,1.63,1.63,0,*7C
1505624878.28,32021,12.56,73628.5,2.33,1.59,1.63,0,*74
1505624879.51,32022,12.56,73630.0,2.35,1.63,1.63,0,*78
1505624880.76,32023,12.56,73626.8,2.33,1.59,1.63,0,*76
1505624882.01,32024,12.56,73630.3,2.33,1.63,1.59,0,*71
1505624883.26,32025,12.56,73624.0,2.33,1.63,1.63,0,*79
1505624884.44,32026,12.56,73630.0,2.35,1.75,1.75,0,*7C
1505624885.66,32027,12.56,73634.5,2.33,1.75,1.71,0,*7F
1505624886.89,32028,12.56,73632.5,2.33,1.71,1.75,0,*70
1505624888.1,32029,12.56,73630.3,2.33,1.75,1.75,0,*75
1505624889.33,32030,12.56,73630.5,2.33,1.71,1.75,0,*79
1505624890.56,32031,12.56,73634.3,2.33,1.71,1.75,0,*78
1505624891.81,32032,12.56,73632.0,2.33,1.71,1.71,0,*7F
1505624893.06,32033,12.56,73628.3,2.33,1.71,1.71,0,*7E
1505624894.26,32034,12.56,73634.3,2.35,1.67,1.75,0,*7C
1505624895.51,32035,12.56,73634.3,2.33,1.63,1.71,0,*7B
1505624896.76,32036,12.56,73630.0,2.33,1.59,1.63,0,*72
1505624898.01,32037,12.56,73628.0,2.33,1.59,1.71,0,*70
1505624899.24,32038,12.56,73630.8,2.35,1.37,1.37,0,*73
1505624900.5,32039,12.56,73632.3,2.33,1.55,1.55,0,*74
1505624901.75,32040,12.56,73632.0,2.33,1.63,1.63,0,*7A
1505624903.0,32041,12.56,73630.3,2.33,1.63,1.63,0,*7B
1505624904.23,32042,12.56,73630.8,2.35,1.63,1.67,0,*7A
1505624905.48,32043,12.56,73628.5,2.33,1.71,1.71,0,*79
1505624906.73,32044,12.56,73628.0,2.33,1.71,1.71,0,*7E
1505624907.91,32045,12.56,73628.8,2.35,1.79,1.75,0,*75
1505624909.11,32046,12.56,73632.3,2.33,1.75,1.75,0,*7C
1505624910.32,32047,12.56,73632.3,2.33,1.75,1.79,0,*71
1505624911.57,32048,12.56,73628.3,2.33,1.71,1.71,0,*72
1505624912.75,32049,12.63,73632.3,2.35,1.75,1.75,0,*75
1505624913.98,32050,12.56,73630.3,2.33,1.71,1.75,0,*7F
1505624915.21,32051,12.56,73628.5,2.33,1.71,1.83,0,*77
1505624916.39,32052,12.56,73628.3,2.35,1.75,1.79,0,*73
1505624917.57,32053,12.63,73632.0,2.35,1.79,1.75,0,*72
1505624918.78,32054,12.56,73632.5,2.33,1.75,1.75,0,*7F
1505624919.96,32055,12.56,73630.0,2.35,1.75,1.75,0,*78
1505624921.14,32056,12.56,73628.3,2.35,1.75,1.75,0,*7B
1505624922.39,32057,12.56,73630.3,2.33,1.63,1.63,0,*7C
1505624923.59,32058,12.63,73632.3,2.35,1.75,1.67,0,*76
1505624924.79,32059,12.56,73628.8,2.35,1.75,1.67,0,*77
1505624925.99,32060,12.56,73630.0,2.35,1.67,1.75,0,*7D
1505624927.17,32061,12.63,73632.3,2.35,1.75,1.75,0,*7F
1505624928.35,32062,12.56,73626.8,2.35,1.79,1.79,0,*7C